Regional Weather Roundup
Issued by NWS New Orleans/Baton Rouge, LA

Home | Current Version | Previous Version | Text Only | Print | Product List | Glossary On
Versions: 1 2 3 4 5 6 7 8 9 10 11 12 13 14 15 16 17 18 19 20 21 22 23 24 25 26 27 28 29 30 31 32 33 34 35 36 37 38 39 40 41 42 43 44 45 46 47 48 49 50
000
ASUS44 KLIX 021310
RWRLIX
NEW ORLEANS REGIONAL WEATHER ROUNDUP
NATIONAL WEATHER SERVICE NEW ORLEANS LA
800 AM CDT THU OCT 02 2014

NOTE: "FAIR" INDICATES FEW OR NO CLOUDS BELOW 12,000 FEET WITH NO
      SIGNIFICANT WEATHER AND/OR OBSTRUCTIONS TO VISIBILITY.
      SKY/WX - SKY CONDITION AND SIGNIFICANT WEATHER.
      TMP - AIR TEMPERATURE.     DP    - DEWPOINT TEMPERATURE.
      RH  - RELATIVE HUMIDITY.   PRES  - PRESSURE.
      HI  - HEAT INDEX.          WCI   - WIND CHILL INDEX.

*  THESE STATIONS ARE NOT NWS OR FAA STATIONS AND ARE NOT UNDER
   NWS QUALITY CONTROL.

LAZ038-040-048-061>063-065>067-069-021400-
SOUTHEAST LOUISIANA

CITY           SKY/WX    TMP DP  RH WIND       PRES   REMARKS
N.O. AUDUBON     N/A     79  78  97 MISG        N/A
N.O. INTL ARPT MOSUNNY   79  76  90 SE7       29.97R
N.O. LAKEFRONT SUNNY     78  76  93 SE8       29.98R
N.O. DOWNTOWN*   N/A     79  73  83 SE8       29.98S
SLIDELL        MOSUNNY   77  75  93 CALM      29.98R
BATON ROUGE    PTSUNNY   77  75  93 SE7       29.97R FOG
BOOTHVILLE     SUNNY     79  78  97 SE6       29.99R
BELLE CHASSE   MOSUNNY   79  75  87 SE5       29.98R
BOGALUSA*      CLOUDY    79  75  87 S5        30.00S
GALLIANO*      NOT AVBL
NEW ROADS*     CLOUDY    76  76  98 SE5       29.97R FOG
GONZALES*        N/A     76  76 100 CALM      29.97R
HAMMOND*       MOSUNNY   79  75  89 SE3       30.00R
HOUMA*         SUNNY    N/A N/A N/A CALM      29.97R
PORT FOURCHON* SUNNY     82  77  83 SE7       30.01R

$$

MSZ070-080>082-021400-
SOUTHERN MISSISSIPPI

CITY           SKY/WX    TMP DP  RH WIND       PRES   REMARKS
MCCOMB         CLOUDY    77  74  90 S6        29.99R
GULFPORT       MOSUNNY   80  77  90 SE6       29.99R
BILOXI         CLOUDY    80  77  90 SE6       30.00R
PASCAGOULA     PTSUNNY   75  74  96 NE3       30.01R
STENNIS ARPT*  MOSUNNY   79  75  89 CALM      29.99R

$$

COASTAL OBSERVATIONS
LAKE AND NEARSHORE STATIONS

STATION/POSITION TIME  TEMP    WIND        PRES    WAVE
                       AIR SEA DIR/SP/G            HT/PER
                 (UTC) (F)     (DEG/KT/KT) (MB)    (FT/S)
PASCAGOULA       1300   80     130/  6/  9 1015.4
WAVELAND YACHT   1300   80     160/  5/  6 1014.8
GRAND ISLE       1300   81 81  160/  5/  8 1015.8
SOUTHWEST PASS   1300   81 85  180/  8/ 10 1015.7
NEW CANAL        1300   78 77  140/  2/  3 1015.5
SHELL BEACH      1300   79 75  140/  6/  7 1015.2

OFFSHORE STATIONS

STATION/POSITION TIME  TEMP    WIND        PRES    WAVE
                       AIR SEA DIR/SP/G            HT/PER
                 (UTC) (F)     (DEG/KT/KT) (MB)    (FT/S)
64 S DAUPHIN ISL 1239   78 82  170/ 12/ 14 1016.3    2/ 5

$$



USA.gov is the U.S. government's official web portal to all federal, state and local government web resources and services.